Weather reports worldwide

Advertisment
Trapani/Birgi, Italy (16429): temperature & dewpoint: 09.12.2018 07:00:00 - 15.12.2018 07:00:00 (CET)Trapani/Birgi, Italy (16429): wind speed: 09.12.2018 07:00:00 - 15.12.2018 07:00:00 (CET)Trapani/Birgi, Italy (16429): wind direction: 09.12.2018 07:00:00 - 15.12.2018 07:00:00 (CET)Trapani/Birgi, Italy (16429): reduced air pressure: 09.12.2018 07:00:00 - 15.12.2018 07:00:00 (CET)Trapani/Birgi, Italy (16429): visibility: 09.12.2018 07:00:00 - 15.12.2018 07:00:00 (CET)Trapani/Birgi, Italy (16429): sunshine duration: 09.12.2018 07:00:00 - 15.12.2018 07:00:00 (CET)
Date & Time tt [°C] td [°C] ff [km/h] ff [kn] dd ppp [hPa] vv [km] sd [min]
15.12.2018 07:00:00 - - - - - - - -
15.12.2018 06:00:00 14,0 12,2 16 9 N 1010,4 12 -
15.12.2018 05:00:00 13,0 11,4 4 2 NNE 1009,5 12 -
15.12.2018 04:00:00 12,2 10,9 13 7 WNW 1009,4 12 -
15.12.2018 03:00:00 10,0 9,2 5 3 E 1009,0 12 -
15.12.2018 02:00:00 10,0 9,2 8 4 E 1009,0 12 -
15.12.2018 01:00:00 11,0 9,4 5 3 E 1008,4 12 -
15.12.2018 00:00:00 10,0 9,2 8 4 E 1008,3 12 -
14.12.2018 23:00:00 12,0 10,6 5 3 E 1008,1 12 -
14.12.2018 22:00:00 12,0 9,5 5 3 E 1007,8 12 -
14.12.2018 21:00:00 13,0 10,5 9 5 E 1007,6 12 -
14.12.2018 20:00:00 13,0 12,2 8 4 ENE 1007,2 12 -
14.12.2018 19:00:00 13,0 11,4 13 7 SSE 1006,9 8 -
14.12.2018 18:00:00 16,0 13,1 13 7 E 1006,2 14 -
14.12.2018 17:00:00 16,0 13,8 16 9 ESE 1006,2 16 0
14.12.2018 16:00:00 16,6 14,4 26 14 SE 1006,2 16 0
14.12.2018 15:00:00 16,8 14,4 28 15 SSE 1006,2 16 0
14.12.2018 14:00:00 17,2 15,0 28 15 SE 1006,2 16 0
14.12.2018 13:00:00 17,4 14,9 29 16 SSE 1006,7 16 24
14.12.2018 12:00:00 18,0 14,3 35 19 SSE 1006,9 16 60
14.12.2018 11:00:00 17,8 13,5 31 17 SSE 1007,2 16 54
14.12.2018 10:00:00 16,4 13,7 31 17 SSE 1007,2 16 30
14.12.2018 09:00:00 15,0 12,5 22 12 SE 1007,1 14 0
14.12.2018 08:00:00 14,0 11,4 18 10 SE 1007,1 12 0
14.12.2018 07:00:00 14,0 11,0 21 11 SSE 1007,1 12 0
14.12.2018 06:00:00 13,8 10,8 24 13 SE 1007,4 12 -
14.12.2018 05:00:00 13,6 11,5 24 13 SSE 1007,7 12 -
14.12.2018 04:00:00 13,8 11,9 29 16 SE 1008,1 12 -
14.12.2018 03:00:00 13,4 11,5 31 17 SE 1008,8 12 -
14.12.2018 02:00:00 12,8 11,0 24 13 SE 1009,3 12 -
14.12.2018 01:00:00 12,8 11,2 28 15 SE 1009,8 12 -
14.12.2018 00:00:00 12,8 11,0 26 14 SE 1010,5 12 -
13.12.2018 23:00:00 13,8 12,0 22 12 SE 1010,8 12 -
13.12.2018 22:00:00 13,0 11,6 18 10 SE 1011,3 12 -
13.12.2018 21:00:00 13,2 11,6 16 9 SSE 1011,6 12 -
13.12.2018 20:00:00 13,8 12,2 18 10 SSE 1011,3 12 -
13.12.2018 19:00:00 13,8 12,4 11 6 SE 1011,8 12 -
13.12.2018 18:00:00 14,0 12,7 11 6 SE 1012,0 12 -
13.12.2018 17:00:00 15,0 14,0 11 6 S 1012,2 15 0
13.12.2018 16:00:00 15,0 13,4 9 5 SSW 1012,5 15 0
13.12.2018 15:00:00 16,0 13,5 15 8 SSW 1012,6 18 0
13.12.2018 14:00:00 16,0 13,7 22 12 SW 1012,9 18 12
13.12.2018 13:00:00 16,0 14,4 15 8 SSW 1013,4 18 0
13.12.2018 12:00:00 16,0 13,7 15 8 WSW 1014,1 18 30
13.12.2018 11:00:00 16,0 13,5 18 10 WSW 1014,7 18 60
13.12.2018 10:00:00 16,2 13,7 18 10 WSW 1014,9 18 36
13.12.2018 09:00:00 15,0 13,4 21 11 WSW 1014,9 15 12
13.12.2018 08:00:00 14,8 13,2 21 11 WSW 1014,6 15 0
13.12.2018 07:00:00 14,4 12,8 16 9 WSW 1014,1 12 0
13.12.2018 06:00:00 14,4 12,6 15 8 WSW 1014,2 12 -
13.12.2018 05:00:00 14,2 12,1 15 8 WSW 1015,4 12 -
13.12.2018 04:00:00 14,2 12,2 15 8 WSW 1015,5 12 -
13.12.2018 03:00:00 14,2 12,8 21 11 SW 1015,5 10 -
13.12.2018 02:00:00 14,2 12,9 24 13 SW 1015,6 10 -
13.12.2018 01:00:00 14,0 12,9 21 11 SW 1016,1 12 -
13.12.2018 00:00:00 14,0 13,0 16 9 SW 1016,4 12 -
12.12.2018 23:00:00 13,8 12,4 15 8 SSW 1016,7 12 -
12.12.2018 22:00:00 14,0 13,0 16 9 SW 1016,8 12 -
12.12.2018 21:00:00 14,0 13,0 18 10 SW 1017,1 12 -
12.12.2018 20:00:00 13,2 11,8 9 5 SSW 1017,2 12 -
12.12.2018 19:00:00 12,6 10,8 11 6 WSW 1017,4 12 -
12.12.2018 18:00:00 13,0 10,7 8 4 W 1017,2 20 -
12.12.2018 17:00:00 13,8 11,0 5 3 W 1017,5 20 0
12.12.2018 16:00:00 15,0 12,7 13 7 WNW 1017,5 20 0
12.12.2018 15:00:00 15,8 10,8 18 10 WNW 1017,9 20 60
12.12.2018 14:00:00 16,2 10,7 22 12 W 1018,1 20 54
12.12.2018 13:00:00 16,0 10,3 22 12 WNW 1018,5 20 60
12.12.2018 12:00:00 16,2 11,4 18 10 W 1019,0 20 36
12.12.2018 11:00:00 15,0 12,0 8 4 W 1019,2 20 12
12.12.2018 10:00:00 12,8 10,9 9 5 SE 1019,3 20 0
12.12.2018 09:00:00 10,6 9,0 8 4 E 1019,2 10 0
12.12.2018 08:00:00 10,0 8,6 11 6 SE 1018,7 18 0
12.12.2018 07:00:00 10,2 9,0 9 5 SE 1018,8 15 0
12.12.2018 06:00:00 9,8 8,7 9 5 ESE 1018,7 15 -
12.12.2018 05:00:00 13,0 8,5 11 6 NW 1019,2 15 -
12.12.2018 04:00:00 12,2 8,5 18 10 WNW 1019,2 15 -
12.12.2018 03:00:00 12,0 8,7 21 11 W 1019,2 15 -
12.12.2018 02:00:00 10,6 9,8 9 5 ESE 1019,2 15 -
12.12.2018 01:00:00 10,2 9,4 9 5 SE 1019,2 15 -
12.12.2018 00:00:00 10,6 9,8 8 4 ESE 1019,2 15 -
11.12.2018 23:00:00 10,8 10,2 9 5 ESE 1019,1 15 -
11.12.2018 22:00:00 10,8 10,2 8 4 ESE 1019,0 15 -
11.12.2018 21:00:00 11,0 10,5 5 3 E 1018,7 15 -
11.12.2018 20:00:00 10,8 10,4 9 5 SSE 1018,8 15 -
11.12.2018 19:00:00 12,0 11,9 5 3 SE 1018,6 12 -
11.12.2018 18:00:00 13,2 13,0 5 3 SE 1018,3 16 0
11.12.2018 17:00:00 14,0 11,9 4 2 E 1018,2 18 0
11.12.2018 16:00:00 14,0 12,2 9 5 N 1018,1 20 54
11.12.2018 15:00:00 15,0 11,8 9 5 NW 1017,9 20 42
11.12.2018 14:00:00 15,0 10,8 13 7 NW 1017,9 20 36
11.12.2018 13:00:00 15,0 9,8 22 12 NW 1018,0 20 6
11.12.2018 12:00:00 14,2 12,2 22 12 W 1018,4 18 0
11.12.2018 11:00:00 13,2 12,4 15 8 W 1018,9 10 0
11.12.2018 10:00:00 16,0 11,2 15 8 WNW 1018,6 20 0
11.12.2018 09:00:00 14,4 10,2 15 8 NW 1018,2 20 0
11.12.2018 08:00:00 13,0 10,9 13 7 W 1018,2 16 0
11.12.2018 07:00:00 14,8 8,3 16 9 NNW 1017,7 16 -
11.12.2018 06:00:00 14,8 8,1 18 10 NW 1017,5 14 -
11.12.2018 05:00:00 15,0 8,5 22 12 NW 1017,6 14 -
11.12.2018 04:00:00 15,0 8,9 22 12 NW 1017,9 14 -
11.12.2018 03:00:00 15,0 9,2 22 12 NW 1018,0 14 -
11.12.2018 02:00:00 15,0 9,6 22 12 NW 1018,0 14 -
11.12.2018 01:00:00 15,0 9,6 24 13 NW 1018,1 14 -
11.12.2018 00:00:00 15,2 10,0 31 17 NW 1018,1 14 -
10.12.2018 23:00:00 15,2 9,8 26 14 WNW 1018,1 14 -
10.12.2018 22:00:00 15,4 10,8 26 14 NW 1018,0 14 -
10.12.2018 21:00:00 15,2 10,6 28 15 NW 1017,9 14 -
10.12.2018 20:00:00 15,0 9,6 28 15 NW 1017,2 14 -
10.12.2018 19:00:00 15,0 9,2 26 14 NW 1017,2 10 -
10.12.2018 18:00:00 15,0 11,2 31 17 WNW 1017,2 18 -
10.12.2018 17:00:00 15,2 11,0 34 18 WNW 1017,2 18 0
10.12.2018 16:00:00 16,0 11,2 29 16 NW 1017,2 20 30
10.12.2018 15:00:00 16,2 11,4 31 17 NW 1017,2 20 36
10.12.2018 14:00:00 17,0 11,5 31 17 NW 1017,3 20 60
10.12.2018 13:00:00 17,0 11,1 34 18 WNW 1018,1 20 54
10.12.2018 12:00:00 16,2 12,2 29 16 WNW 1018,6 20 12
10.12.2018 11:00:00 16,2 11,8 28 15 WNW 1018,6 20 60
10.12.2018 10:00:00 16,2 11,6 29 16 WNW 1018,6 20 36
10.12.2018 09:00:00 15,2 11,0 28 15 WNW 1018,0 20 6
10.12.2018 08:00:00 15,0 12,0 28 15 WNW 1017,4 18 0
10.12.2018 07:00:00 14,8 12,7 31 17 WNW 1017,3 12 0
10.12.2018 06:00:00 16,0 10,1 26 14 NW 1017,1 12 -
10.12.2018 05:00:00 15,8 12,4 42 23 WNW 1016,7 12 -
10.12.2018 04:00:00 15,8 10,8 42 23 NW 1017,1 12 -
10.12.2018 03:00:00 15,8 11,4 41 22 WNW 1017,2 12 -
10.12.2018 02:00:00 16,0 12,9 34 18 W 1017,4 12 -
10.12.2018 01:00:00 16,0 11,8 46 25 W 1018,2 12 -
10.12.2018 00:00:00 16,0 12,4 46 25 WNW 1019,0 12 -
09.12.2018 23:00:00 16,2 14,4 31 17 WNW 1019,5 12 -
09.12.2018 22:00:00 16,2 14,2 34 18 WNW 1019,7 12 -
09.12.2018 21:00:00 16,2 13,9 29 16 WNW 1020,0 12 -
09.12.2018 20:00:00 15,0 12,0 26 14 W 1019,8 12 -
09.12.2018 19:00:00 15,6 12,9 24 13 W 1019,3 14 -
09.12.2018 18:00:00 15,6 12,9 24 13 W 1019,3 14 -
09.12.2018 17:00:00 16,0 14,0 24 13 W 1019,2 14 18
09.12.2018 16:00:00 17,0 13,5 28 15 W 1019,2 14 60
09.12.2018 15:00:00 17,0 14,5 46 25 WNW 1019,2 14 60
09.12.2018 14:00:00 17,0 14,3 35 19 WNW 1019,9 14 36
09.12.2018 13:00:00 17,4 14,1 31 17 W 1020,2 16 30
09.12.2018 12:00:00 17,2 13,7 28 15 WNW 1021,1 18 54
09.12.2018 11:00:00 17,0 12,7 26 14 WNW 1021,9 20 60
09.12.2018 10:00:00 15,6 11,8 21 11 WNW 1021,8 20 48
09.12.2018 09:00:00 15,0 10,8 8 4 WNW 1021,3 18 18
09.12.2018 08:00:00 14,0 10,6 18 10 WNW 1021,3 18 -
09.12.2018 07:00:00 15,0 11,0 18 10 NNW 1021,0 16 0

tt = temperature
td = dewpoint
ff = wind speed
dd = wind direction
ppp = reduced air pressure
vv = visibility
sd = sunshine duration

Next stations